FW7134 Lakevale CA current weather conditions

sailwx.info

Wind from 173 at 3 knots gusting 6

Air temperature 11.7° C
Dewpoint 10.2° C

Last reported at 2020-Jul-06 04:46 UTC.
Time now 2020-Jul-06 05:59 UTC

Location: N 45°47' W 061°55'.
View on Google Maps.

See reports from other nearby stations

  
Tides and Currents Weather Stations Pressure Air Temp Water Temp Dewpoint Dewpoint Depression Visibility Wind Speed Wind Dir Waves Ship Positions
date/time (UTC)wind fromknots sea level pressurealtimeterstation pressurevisibilityair tempwater tempwave heightnotes
2020-Jul-06 04:46 173 3 gusting 6 11.7
2020-Jul-06 04:30 157 1 gusting 4 11.7
2020-Jul-06 04:15 207 0 gusting 5 11.7
2020-Jul-06 04:00 170 0 gusting 6 11.7
2020-Jul-06 03:45 217 3 gusting 6 11.7
2020-Jul-06 03:31 182 3 gusting 7 12.2
2020-Jul-06 03:15 202 4 gusting 7 12.2
2020-Jul-06 03:00 207 4 gusting 8 12.2
2020-Jul-06 02:45 204 3 gusting 6 12.2
2020-Jul-06 02:30 227 4 gusting 8 12.2
2020-Jul-06 02:15 202 2 gusting 9 12.2
2020-Jul-06 02:00 192 5 gusting 10 12.2
2020-Jul-06 01:45 213 4 gusting 8 12.8
2020-Jul-06 01:30 188 3 gusting 8 12.8
2020-Jul-06 01:15 164 2 gusting 6 12.8
2020-Jul-06 01:00 157 1 gusting 5 13.3
2020-Jul-06 00:45 188 2 gusting 6 13.3
2020-Jul-06 00:30 202 1 gusting 6 13.3
2020-Jul-06 00:15 180 2 gusting 5 13.3
2020-Jul-05 23:47 173 3 gusting 7 14.4
2020-Jul-05 23:31 173 2 gusting 6 14.4
2020-Jul-05 23:16 164 3 gusting 10 15.6
2020-Jul-05 23:01 163 2 gusting 8 16.1
2020-Jul-05 22:47 200 4 gusting 8 16.7
2020-Jul-05 22:31 156 4 gusting 9 17.2
2020-Jul-05 22:16 199 4 gusting 9 17.8
2020-Jul-05 22:01 201 5 gusting 11 18.3
2020-Jul-05 21:47 193 6 gusting 10 18.9
2020-Jul-05 21:31 174 5 gusting 11 17.8
2020-Jul-05 21:16 166 6 gusting 12 17.8
2020-Jul-05 21:01 141 6 gusting 12 18.3
2020-Jul-05 20:46 146 6 gusting 13 18.9
2020-Jul-05 20:30 150 3 gusting 13 18.9
2020-Jul-05 20:16 100 5 gusting 10 18.3
2020-Jul-05 20:00 074 3 gusting 11 18.3
2020-Jul-05 19:45 107 7 gusting 13 18.3
2020-Jul-05 19:30 111 6 gusting 13 18.3
2020-Jul-05 19:15 107 6 gusting 13 18.3
2020-Jul-05 19:00 094 6 gusting 12 17.8
2020-Jul-05 18:45 094 6 gusting 11 18.3
2020-Jul-05 18:30 092 6 gusting 12 18.3
2020-Jul-05 18:16 055 6 gusting 9 17.8
2020-Jul-05 18:00 107 5 gusting 12 18.3
2020-Jul-05 17:45 111 4 gusting 8 18.9
2020-Jul-05 17:30 099 4 gusting 7 18.9
2020-Jul-05 17:15 132 6 gusting 11 17.8
2020-Jul-05 17:00 124 6 gusting 10 17.8
2020-Jul-05 16:45 182 6 gusting 10 17.8
2020-Jul-05 16:30 146 3 gusting 8 17.8
2020-Jul-05 16:15 128 6 gusting 10 17.2
2020-Jul-05 16:00 113 6 gusting 10 17.2
2020-Jul-05 15:31 144 6 gusting 11 16.1
2020-Jul-05 15:17 141 5 gusting 9 16.1
2020-Jul-05 15:02 125 6 gusting 10 16.1
2020-Jul-05 14:46 136 6 gusting 10 16.1
2020-Jul-05 14:32 143 6 gusting 12 16.1
2020-Jul-05 14:18 122 6 gusting 12 15.6
2020-Jul-05 14:01 151 6 gusting 13 16.1
2020-Jul-05 13:46 114 6 gusting 13 15.6
2020-Jul-05 13:31 223 4 gusting 8 16.1
2020-Jul-05 13:16 132 4 gusting 11 14.4
2020-Jul-05 13:00 186 3 gusting 8 13.9
2020-Jul-05 12:45 151 4 gusting 8 13.3
2020-Jul-05 12:30 148 5 gusting 8 12.8
2020-Jul-05 12:16 134 4 gusting 8 12.2
2020-Jul-05 12:00 142 6 gusting 11 12.8
2020-Jul-05 11:45 123 6 gusting 9 12.8
2020-Jul-05 11:30 111 4 gusting 8 12.2
2020-Jul-05 11:15 148 5 gusting 9 12.8
2020-Jul-05 11:00 164 3 gusting 6 12.8
2020-Jul-05 10:45 161 3 gusting 6 11.7
2020-Jul-05 10:30 192 2 gusting 8 11.1
2020-Jul-05 10:15 167 4 gusting 6 11.1
2020-Jul-05 09:47 150 3 gusting 6 11.1
2020-Jul-05 09:45 151 2 gusting 6 11.1
2020-Jul-05 09:31 191 1 gusting 6 11.1
2020-Jul-05 09:16 199 2 gusting 5 10.6
2020-Jul-05 09:01 181 3 gusting 6 10.6
2020-Jul-05 08:46 169 1 gusting 6 10.6
2020-Jul-05 08:31 184 3 gusting 8 10.6
2020-Jul-05 08:16 160 3 gusting 6 10.6
2020-Jul-05 08:01 194 3 gusting 5 10.6
2020-Jul-05 07:46 190 1 gusting 4 11.1
2020-Jul-05 07:31 176 2 gusting 6 11.1
2020-Jul-05 07:16 207 3 gusting 6 11.1
2020-Jul-05 07:00 209 3 gusting 6 11.1
2020-Jul-05 06:46 188 1 gusting 4 11.1
2020-Jul-05 06:31 186 4 gusting 7 11.1
2020-Jul-05 06:15 187 3 gusting 8 11.1
2020-Jul-05 06:00 201 3 gusting 9 11.1
2020-Jul-05 05:46 201 4 gusting 8 11.1
2020-Jul-05 05:31 193 5 gusting 7 11.7
2020-Jul-05 05:16 173 2 gusting 6 11.7
2020-Jul-05 05:01 207 5 gusting 8 11.7
2020-Jul-05 04:45 205 2 gusting 5 11.7
2020-Jul-05 04:30 175 4 gusting 7 11.7
2020-Jul-05 04:16 159 1 gusting 5 11.7
2020-Jul-05 04:00 185 2 gusting 6 11.7
2020-Jul-05 03:45 187 3 gusting 5 11.7
2020-Jul-05 03:30 144 2 gusting 6 11.7
2020-Jul-05 03:15 188 2 gusting 5 11.7
2020-Jul-05 03:00 180 1 gusting 5 11.7
2020-Jul-05 02:45 161 3 gusting 6 11.7
2020-Jul-05 02:30 186 2 gusting 8 11.7
2020-Jul-05 02:00 148 4 gusting 9 12.2
2020-Jul-05 01:46 193 4 gusting 8 12.8
2020-Jul-05 01:31 179 5 gusting 8 12.8
2020-Jul-05 01:01 194 4 gusting 7 13.3
2020-Jul-05 00:46 168 5 gusting 8 13.9
2020-Jul-05 00:31 140 5 gusting 13 13.9
2020-Jul-05 00:15 170 4 gusting 10 13.9
2020-Jul-05 00:01 147 4 gusting 11 13.9
2020-Jul-04 23:46 123 5 gusting 13 14.4
2020-Jul-04 23:30 136 6 gusting 13 14.4
2020-Jul-04 23:16 148 5 gusting 10 14.4
2020-Jul-04 23:00 111 7 gusting 13 15.0
2020-Jul-04 22:45 139 6 gusting 10 15.6
2020-Jul-04 22:31 140 6 gusting 12 15.6
2020-Jul-04 22:15 143 5 gusting 13 16.1
2020-Jul-04 22:00 134 6 gusting 13 16.1
2020-Jul-04 21:46 118 4 gusting 12 16.7
2020-Jul-04 21:31 152 7 gusting 12 16.7
2020-Jul-04 21:15 150 5 gusting 12 16.7
2020-Jul-04 21:00 138 7 gusting 14 16.7
2020-Jul-04 20:45 150 7 gusting 13 16.7
2020-Jul-04 20:30 134 8 gusting 13 16.7
2020-Jul-04 20:15 132 7 gusting 14 17.2
2020-Jul-04 20:00 147 5 gusting 13 17.2
2020-Jul-04 19:47 093 6 gusting 14 17.2
2020-Jul-04 19:32 149 7 gusting 13 16.7
2020-Jul-04 19:16 123 5 gusting 15 17.2
2020-Jul-04 19:01 105 6 gusting 14 17.2
2020-Jul-04 18:46 100 7 gusting 13 17.8
2020-Jul-04 18:32 094 6 gusting 10 17.8
2020-Jul-04 18:16 119 5 gusting 13 17.8
2020-Jul-04 18:02 126 6 gusting 13 17.8
2020-Jul-04 17:46 083 6 gusting 13 17.8